Jogging de Stembert-Futurofoot Verviers
Jogging de Stembert-Futurofoot Verviers 02/08/2015 - 8,8 km
Mise à jour le : 02/08/2015 à 22:59
Classement définitif, aucune correction possible
Place Nom Prénom Dossard Temps Vitesse Allure Place. Cat. Catégorie
1 LEFEBVRE LUDWIG 543 31:01 17,02 3:31 1 Séniors
2 SCHYNS REMI 835 31:59 16,50 3:38 1 Espoirs Garçons
3 HEINS FREDERIC 863 32:20 16,33 3:40 2 Séniors
4 SCHOLZEN CHRISTOPHE 596 32:38 16,18 3:42 3 Séniors
5 FICHER PIERRE 339 33:02 15,98 3:45 4 Séniors
6 HERZET FREDERICK 4 33:20 15,83 3:47 5 Séniors
7 OLLO MALOBE CHRISTIAN 804 34:37 15,25 3:56 6 Séniors
8 HENAUX STEPHANE 819 34:40 15,22 3:56 7 Séniors
9 WIERTZ XAVIER 780 34:43 15,21 3:56 8 Séniors
10 ESTEBEZ ANDRE 335 34:48 15,17 3:57 1 Vétérans 1
11 PEUTAT SEBASTIEN 681 35:08 15,02 3:59 9 Séniors
12 SCHYNS NICOLAS 739 35:24 14,91 4:01 10 Séniors
13 DEBIOLLE FREDERIC 206 35:26 14,90 4:01 11 Séniors
14 LECLERCQ JEAN-PHILIPPE 428 36:00 14,66 4:05 12 Séniors
15 VROMEN PIERRE-YVES 675 36:12 14,59 4:06 13 Séniors
16 LENDERS FRANS 801 36:13 14,57 4:07 1 Vétérans 2
17 LODRINI JEROME 887 36:19 14,54 4:07 2 Espoirs Garçons
18 VANDERHEYDEN VALENTIN 659 36:22 14,52 4:07 14 Séniors
19 VAN HAUTEN KEVIN 650 36:27 14,48 4:08 15 Séniors
20 DEJOSE THIERRY 9 36:41 14,39 4:10 2 Vétérans 1
21 DELOYER THOMAS 202 36:56 14,29 4:11 3 Espoirs Garçons
22 HACKENS YANNICK 426 37:04 14,24 4:12 3 Vétérans 1
23 WIMMER JULIEN 851 37:06 14,23 4:13 4 Espoirs Garçons
24 REGNIER DIDIER 806 37:24 14,12 4:15 4 Vétérans 1
25 AGUS PAOLO 41 37:28 14,09 4:15 5 Vétérans 1
26 POLIS GREGORY 549 37:30 14,08 4:15 16 Séniors
27 MARCHAL VINCENT 879 37:35 14,04 4:16 17 Séniors
28 LOUIS FRANCOIS 824 37:42 14,00 4:17 5 Espoirs Garçons
29 STICCA TIBERIO 444 37:45 13,98 4:17 18 Séniors
30 LODRINI GUILLAUME 886 37:57 13,91 4:18 6 Espoirs Garçons
31 FASSIN JEAN-FRANCOIS 277 38:04 13,87 4:19 19 Séniors
32 RENDERS ANDRE 848 38:06 13,86 4:19 20 Séniors
33 BLANDIAUX THIBAULT 823 38:09 13,84 4:20 21 Séniors
34 BROUWIER PIERRE 121 38:17 13,79 4:21 1 Vétérans 3
35 DELOYER LAURENT 201 38:23 13,75 4:21 22 Séniors
36 VAN LOO ALFONS 802 38:25 13,74 4:22 2 Vétérans 2
37 CHARLIER ALEXANDRE 137 38:27 13,73 4:22 23 Séniors
38 LEGROS FRANCIS 431 38:30 13,71 4:22 6 Vétérans 1
39 JEWASINSKI MICHEL 385 38:32 13,70 4:22 7 Vétérans 1
40 DESSOUROUX JEAN 227 38:38 13,66 4:23 2 Vétérans 3
41 GATEZ SEBASTIEN 306 38:46 13,62 4:24 8 Vétérans 1
42 JASPAR CHRISTIAN 383 38:48 13,61 4:24 3 Vétérans 3
43 SCHRYNEMACKERS QUENTIN 847 38:50 13,59 4:24 24 Séniors
44 CANALES ALBERTO 130 39:00 13,54 4:25 4 Vétérans 3
45 DEMONTY LOIC 837 39:40 13,31 4:30 7 Espoirs Garçons
46 DEVIGNE JEAN MICHEL 809 39:44 13,28 4:31 25 Séniors
47 JOURDAN GUY 503 39:47 13,27 4:31 26 Séniors
48 GRUSELIN STEVE 329 39:50 13,25 4:31 27 Séniors
49 BRONLET BENOIT 119 40:06 13,17 4:33 9 Vétérans 1
50 HEUSCH VINCENT 357 40:11 13,14 4:34 10 Vétérans 1
51 LUX RALPH 828 40:21 13,08 4:35 3 Vétérans 2
52 DEJONG MATHIEU 856 40:27 13,05 4:35 28 Séniors
53 DUMONT RAPHAEL 333 40:42 12,97 4:37 29 Séniors
54 CULOT JEAN YVES 800 40:45 12,95 4:37 11 Vétérans 1
55 PESSER ALINE 11 40:51 12,92 4:38 1 Ainées 1
56 BLANCHY GILLES 85 40:52 12,92 4:38 4 Vétérans 2
57 FLAMAND MICHAEL 825 40:57 12,89 4:39 30 Séniors
58 PIRARD PHILIPPE 885 41:01 12,87 4:39 31 Séniors
59 SCHNAKERS ARNAUD 595 41:23 12,76 4:42 32 Séniors
60 BISSOT CLEMENT 901 41:28 12,73 4:42 33 Séniors
61 MASSIN JEAN-PHILIPPE 484 41:33 12,70 4:43 34 Séniors
62 THIRION DIEGO 883 41:39 12,67 4:44 8 Espoirs Garçons
63 FONTAINE SERGE 291 41:44 12,65 4:44 12 Vétérans 1
64 BREVER CHLOE 115 41:50 12,62 4:45 1 Espoirs Filles
65 GUILLAUME DAMIEN 6 41:59 12,58 4:46 35 Séniors
66 DONNAY VINCENT 818 42:00 12,57 4:46 5 Vétérans 2
67 COLS STEPHAN 852 42:07 12,54 4:47 13 Vétérans 1
68 PAULY AURORE 907 42:10 12,52 4:47 1 Dames
69 GOMZE MICHEL 272 42:13 12,50 4:47 14 Vétérans 1
70 WEUSTEN CEDRIC 778 42:16 12,49 4:48 36 Séniors
71 VINASSA TANGUY 836 42:23 12,46 4:49 37 Séniors
72 ROOMANS CHRISTIAN 581 42:27 12,44 4:49 6 Vétérans 2
73 ENGLEBERT ANDRE 827 42:31 12,42 4:49 38 Séniors
74 RITROVATO SYLVAIN 575 42:39 12,38 4:50 15 Vétérans 1
75 VOSS JEAN-LOUIS 673 42:42 12,36 4:51 5 Vétérans 3
76 HENNIQUIAU JEAN FRANCOIS 898 42:56 12,30 4:52 39 Séniors
77 BOUCKAERT STEPHANE 814 42:59 12,28 4:53 40 Séniors
78 LAFAYE SERGE 884 43:01 12,27 4:53 41 Séniors
79 GILLET GREGORY 896 43:07 12,24 4:54 42 Séniors
80 STEFFENS BENOIT 749 43:18 12,19 4:55 43 Séniors
81 THONON NICOLAS 876 43:27 12,15 4:56 44 Séniors
82 BIDOUL GIL 75 43:28 12,14 4:56 45 Séniors
83 WINTGENS JULIEN 820 43:33 12,12 4:56 46 Séniors
84 DELVAUX GARY 208 43:34 12,12 4:57 47 Séniors
85 SCHREURS BERNARD 600 43:38 12,10 4:57 48 Séniors
86 MOURANT FRANCK 631 43:41 12,09 4:57 49 Séniors
87 DUBOIS PASCAL 332 43:50 12,04 4:58 50 Séniors
88 SCHMITZ DOMINIQUE 862 43:54 12,02 4:59 16 Vétérans 1
89 PALUMBO ROSARIO 415 43:56 12,02 4:59 51 Séniors
90 RENSON JEAN LUC 897 43:59 12,00 4:59 17 Vétérans 1
91 DETHIER JEAN FRANCOIS 230 44:04 11,98 5:00 52 Séniors
92 COLLIN STEFAN 910 44:54 11,76 5:06 7 Vétérans 2
93 SOMJA VICTOR 840 45:05 11,71 5:07 8 Vétérans 2
94 ROLLON STEPHANE 807 45:12 11,68 5:08 53 Séniors
95 VAESSEN SOPHIE 762 45:13 11,68 5:08 2 Dames
96 DONNEAU BENOIT 311 45:15 11,67 5:08 54 Séniors
97 BREUER CLAIRE 874 45:16 11,66 5:08 2 Ainées 1
98 BEKKAR WAHIB 70 45:25 11,62 5:09 55 Séniors
99 MAGER ETIENNE 890 45:28 11,61 5:10 56 Séniors
100 COURARD DIDIER 905 45:32 11,59 5:10 9 Vétérans 2
101 COLAUX FLORENT 870 45:35 11,58 5:10 57 Séniors
102 BONIVER FRÉDÉRIC 816 45:43 11,55 5:11 18 Vétérans 1
103 ROBERT ETIENNE 909 45:45 11,54 5:12 10 Vétérans 2
104 PESSER ALAIN 535 45:59 11,48 5:13 19 Vétérans 1
105 LEPLAT DAMIEN 904 46:02 11,47 5:13 58 Séniors
106 DEWIL JEAN 858 46:08 11,44 5:14 11 Vétérans 2
107 SCHNACKERS OLIVIER 859 46:09 11,44 5:14 59 Séniors
108 GODDE CHRISTOPHE 831 46:12 11,42 5:15 60 Séniors
109 LERHO XAVIER 844 46:17 11,40 5:15 61 Séniors
110 LINCE FRANCOISE 586 46:23 11,38 5:16 3 Ainées 1
111 PIRLOT BERNARD 541 46:25 11,37 5:16 62 Séniors
112 CAPIER JEAN-MARIE 197 46:50 11,27 5:19 6 Vétérans 3
113 KHAMMAVONG SOM 811 47:03 11,22 5:20 63 Séniors
114 SOMJA JEAN PHILIPPE 613 47:05 11,21 5:21 64 Séniors
115 CHEBIL RAMI 139 47:07 11,20 5:21 65 Séniors
116 DEMOL CINDY 211 47:09 11,20 5:21 4 Ainées 1
117 PONSARD GUY 551 47:12 11,19 5:21 12 Vétérans 2
118 GUERIN SERGE 857 47:15 11,17 5:22 13 Vétérans 2
119 BRAGARD GREGORY 894 47:27 11,13 5:23 66 Séniors
120 HIERNAUX AURELIE 467 47:31 11,11 5:24 5 Ainées 1
121 LUNETTA ALDO 873 47:41 11,07 5:25 20 Vétérans 1
122 KEIL YVES 509 47:45 11,05 5:25 21 Vétérans 1
123 PREMONT JUSTINE 833 47:47 11,05 5:25 3 Dames
124 PREMONT PATRICK 834 47:49 11,04 5:26 14 Vétérans 2
125 ISERENTANT CARINE 483 47:51 11,03 5:26 1 Ainées 2
126 STEPHANE BRUNO 751 47:52 11,03 5:26 15 Vétérans 2
127 BIANCA SEBASTIEN 73 47:55 11,02 5:26 67 Séniors
128 FERNANDEZ BERNARD 893 48:00 11,00 5:27 22 Vétérans 1
129 DELOYER JEAN-PAUL 237 48:10 10,96 5:28 23 Vétérans 1
130 COLAUX PAULINE 871 48:11 10,96 5:28 4 Dames
131 WINTGENS CARINE 838 48:28 10,89 5:30 6 Ainées 1
132 BIBERSZTEIN STEFAN 839 48:31 10,88 5:30 16 Vétérans 2
133 LAMBERT DAMIEN 531 48:33 10,87 5:31 68 Séniors
134 FAFCHAMPS LAURENT 906 48:41 10,84 5:32 69 Séniors
135 ROYEN SIMON 902 48:46 10,83 5:32 70 Séniors
136 LEMAIRE THIERRY 900 49:03 10,76 5:34 24 Vétérans 1
137 PESSER RENE 797 49:06 10,75 5:34 17 Vétérans 2
138 BOUNGARD GREGORY 872 49:07 10,75 5:34 71 Séniors
139 DELREZ SANDRA 238 49:10 10,74 5:35 2 Ainées 2
140 SIEBENBOUR MICHEL 878 49:12 10,73 5:35 25 Vétérans 1
141 LOPEZ NAVA PAULINE 830 49:31 10,66 5:37 2 Espoirs Filles
142 DUMONT MARIANNE 829 49:34 10,65 5:37 3 Ainées 2
143 LOPEZ-NAVA DIDIER 591 49:37 10,64 5:38 26 Vétérans 1
144 HAUBRECHTS VALÉRIE 815 49:40 10,63 5:38 4 Ainées 2
145 DETRY PHILIPPE 232 49:41 10,62 5:38 18 Vétérans 2
146 ABAD LAMAS PATRICIA 37 49:44 10,62 5:39 5 Ainées 2
147 JACOBS VERONIQUE 737 49:58 10,57 5:40 7 Ainées 1
148 KRICFALUSI YVAN 738 50:00 10,56 5:40 19 Vétérans 2
149 WERTZ BERNARD 895 50:04 10,54 5:41 20 Vétérans 2
150 PUPIEN GENEVIEVE 891 50:06 10,54 5:41 8 Ainées 1
151 RENNOTTE JEAN LUC 841 50:07 10,53 5:41 21 Vétérans 2
152 WINTGENS MARC 821 50:15 10,51 5:42 22 Vétérans 2
153 LEYDER ANNE 843 50:18 10,49 5:43 6 Ainées 2
154 LEGRAIN BENOIT 832 50:20 10,49 5:43 72 Séniors
155 LAMBOTTE DAMIEN 810 50:21 10,48 5:43 9 Espoirs Garçons
156 ROUFOSSE UGO 34 51:01 10,35 5:47 27 Vétérans 1
157 SARLET JULIE 732 51:03 10,34 5:48 5 Dames
158 CRUTZEN DONA 892 51:28 10,26 5:50 6 Dames
159 JUNKER HENRY-MARC 397 51:46 10,20 5:53 7 Vétérans 3
160 NYSSEN ALAIN 889 52:33 10,05 5:58 28 Vétérans 1
161 STEMBERT LAETITIA 750 52:35 10,04 5:58 7 Dames
162 VALENTIN MIREILLE 888 52:39 10,03 5:59 7 Ainées 2
163 GILLON VANESSA 846 52:41 10,02 5:59 9 Ainées 1
164 MUYTERS CHRISTIAN 514 53:17 9,91 6:03 8 Vétérans 3
165 CHARLIER ANNE-CATHERINE 32 53:19 9,90 6:03 8 Dames
166 CABAY JEAN 880 53:29 9,87 6:04 23 Vétérans 2
167 POHL DIDIER 702 53:56 9,79 6:07 24 Vétérans 2
168 LORQUET JEAN - MARC 10 53:56 9,79 6:07 25 Vétérans 2
169 DEDOYART MARINETTE 826 54:02 9,77 6:08 8 Ainées 2
170 SCHONBRODT ALAIN 882 54:04 9,76 6:08 29 Vétérans 1
171 D'AMBROSIO CHRISTELLE 813 54:08 9,75 6:09 9 Dames
172 LARONDELLE SYLVIANE 422 54:12 9,74 6:09 9 Ainées 2
173 BELBOON MICHAEL 864 54:15 9,73 6:09 73 Séniors
174 MUYTERS SERGE 515 54:25 9,70 6:11 1 Vétérans 4
175 DARSSI FARIDA 860 54:34 9,67 6:12 10 Ainées 2
176 MATHIEU STEPHANIE 753 55:06 9,58 6:15 10 Dames
177 PÉTERS DAVID 881 55:08 9,58 6:15 74 Séniors
178 LEMOINE ALINE 563 55:11 9,57 6:16 10 Ainées 1
179 CHARLIER JEAN MARC 842 55:13 9,56 6:16 26 Vétérans 2
180 DEHON MARIE 899 55:15 9,55 6:16 11 Dames
181 DETRY JESSICA 849 55:17 9,55 6:17 12 Dames
182 VERCAMMEN MICHEL 768 55:20 9,54 6:17 30 Vétérans 1
183 JONLET LIONEL 13 55:21 9,54 6:17 75 Séniors
184 MAUHID MARJORIE 865 55:23 9,53 6:17 13 Dames
185 FRANKEN MARC 867 55:25 9,53 6:17 27 Vétérans 2
186 JAMSIN MARC 855 55:38 9,49 6:19 31 Vétérans 1
187 BRISBOIS BENJAMIN 812 55:50 9,46 6:20 76 Séniors
188 GILON CHRISTIAN 845 55:54 9,44 6:21 9 Vétérans 3
189 COLLIGNON SABRINA 869 55:57 9,44 6:21 14 Dames
190 BRANDT ARLETTE 112 56:02 9,42 6:22 1 Ainées 3
191 PICHOT PATRICIA 803 56:08 9,40 6:22 11 Ainées 2
192 SANDMEIER SOPHIE 868 56:31 9,34 6:25 15 Dames
193 ERNEST BERT 850 56:54 9,28 6:27 28 Vétérans 2
194 LOVENBERG GUY 465 57:09 9,24 6:29 29 Vétérans 2
195 DETRY AURELIE 808 57:37 9,16 6:32 16 Dames
196 VAN LAAR CHRISTINE 652 57:45 9,14 6:33 12 Ainées 2
197 LOFGEN MIREILLE 456 57:51 9,13 6:34 11 Ainées 1
198 WANSART JOELLE 679 57:53 9,12 6:34 12 Ainées 1
199 HAMERS HARRIE 805 58:30 9,02 6:38 10 Vétérans 3
200 HUBERTY CARINE 822 1:00:39 8,70 6:53 13 Ainées 2
201 MAQUINAY FELICIEN 475 1:00:41 8,70 6:53 30 Vétérans 2
202 HERTAY FRANCOISE 451 1:01:32 8,58 6:59 13 Ainées 1
203 SCHMITZ LYDIE 875 1:02:12 8,49 7:04 17 Dames
204 DEMIRKOL KADRI 853 1:02:14 8,48 7:04 77 Séniors
205 SIMON ISABELLE 607 1:03:54 8,26 7:15 14 Ainées 2
206 CALIFICE HUBERTE 128 1:03:59 8,25 7:16 2 Ainées 3
207 DEMONTY NICOLAS 866 1:05:39 8,04 7:27 78 Séniors
208 POLIS NICOLAS 817 1:06:14 7,97 7:31 10 Espoirs Garçons
209 MAES MARC 908 1:06:15 7,97 7:31 31 Vétérans 2
210 DELHASSE ELODIE 903 1:06:33 7,93 7:33 18 Dames
211 REUTER GERALDINE 877 1:06:34 7,93 7:33 19 Dames
212 DE CORTE NELE 854 1:07:20 7,84 7:39 20 Dames
213 MARCOTTE JEAN LUC 604 1:10:09 7,53 7:58 32 Vétérans 2
214 KISOKA VICTOIRE 911 1:12:25 7,29 8:13 11 Espoirs Garçons
215 NKOKO NTUMU ROLLY 861 1:12:28 7,29 8:14 12 Espoirs Garçons
216 VANDENBERGH CHRISTEL 656 1:12:46 7,25 8:16 14 Ainées 1